WZZ008 EDXW-EDDN

Flight info

Callsign WZZ008
Flight time 1h 11m
Altitude 21000
Route EDXW DCT BADOS DCT OMWEG Y348 ELSOB L619 AMLUH M852 POVEL Z94 KENIG Z20 ORTAG Z117 BAMKI DCT DODAS EDDN
Aircraft A320/M-V/N

Departure

Time 2026-04-15 15:48
Airport Westerland Sylt Airport (EDXW)

Arrival

Time 2026-04-15 16:59
Airport Nuremberg Airport (EDDN)
Time Latitude Longitude Altitude Speed Heading
2026-04-15 15:12 54.91386 8.33148 28 ft 0 kts 270°
2026-04-15 15:39 54.91386 8.33165 28 ft 2 kts 270°
2026-04-15 15:39 54.91386 8.33191 28 ft 2 kts 270°
2026-04-15 15:40 54.91385 8.33218 28 ft 2 kts 291°
2026-04-15 15:40 54.91376 8.33239 28 ft 2 kts 325°
2026-04-15 15:40 54.91364 8.33248 28 ft 0 kts 355°
2026-04-15 15:40 54.91357 8.33248 28 ft 1 kts
2026-04-15 15:41 54.91356 8.33248 28 ft 0 kts
2026-04-15 15:43 54.91357 8.33248 28 ft 0 kts
2026-04-15 15:44 54.91371 8.33248 28 ft 3 kts
2026-04-15 15:44 54.91402 8.33244 28 ft 5 kts 345°
2026-04-15 15:44 54.91447 8.33207 28 ft 8 kts 330°
2026-04-15 15:44 54.91511 8.33177 28 ft 11 kts 357°
2026-04-15 15:45 54.91597 8.33175 28 ft 13 kts 360°
2026-04-15 15:45 54.91691 8.33174 29 ft 13 kts 359°
2026-04-15 15:45 54.91779 8.33177 31 ft 11 kts
2026-04-15 15:45 54.91816 8.33195 32 ft 0 kts 18°
2026-04-15 15:46 54.91827 8.33202 32 ft 2 kts 18°
2026-04-15 15:46 54.91855 8.33219 32 ft 5 kts 23°
2026-04-15 15:46 54.91891 8.33278 32 ft 8 kts 66°
2026-04-15 15:46 54.91868 8.33370 33 ft 10 kts 143°
2026-04-15 15:47 54.91823 8.33427 33 ft 12 kts 144°
2026-04-15 15:47 54.91581 8.33726 32 ft 78 kts 144°
2026-04-15 15:47 54.90954 8.34506 33 ft 140 kts 143°
2026-04-15 15:47 54.90055 8.35617 255 ft 168 kts 143°
2026-04-15 15:48 54.89119 8.36811 888 ft 170 kts 143°
2026-04-15 15:48 54.88196 8.37967 1704 ft 165 kts 145°
2026-04-15 15:48 54.87248 8.39127 2244 ft 173 kts 146°
2026-04-15 15:48 54.86214 8.40388 2607 ft 189 kts 146°
2026-04-15 15:49 54.85107 8.41746 2960 ft 207 kts 146°
2026-04-15 15:49 54.83850 8.43293 3272 ft 230 kts 145°
2026-04-15 15:49 54.82511 8.44946 3706 ft 247 kts 145°
2026-04-15 15:49 54.81069 8.46724 4302 ft 259 kts 145°
2026-04-15 15:50 54.79597 8.48542 5045 ft 263 kts 146°
2026-04-15 15:50 54.78117 8.50368 5740 ft 262 kts 146°
2026-04-15 15:50 54.76643 8.52181 5934 ft 264 kts 146°
2026-04-15 15:50 54.75119 8.54053 5962 ft 268 kts 146°
2026-04-15 15:51 54.73605 8.55911 5957 ft 268 kts 146°
2026-04-15 15:51 54.72079 8.57781 5996 ft 271 kts 146°
2026-04-15 15:51 54.70540 8.59667 6538 ft 277 kts 146°
2026-04-15 15:51 54.68972 8.61587 7492 ft 276 kts 146°
2026-04-15 15:52 54.67412 8.63492 8284 ft 280 kts 146°
2026-04-15 15:52 54.65817 8.65439 9018 ft 286 kts 147°
2026-04-15 15:52 54.64172 8.67444 9764 ft 292 kts 147°
2026-04-15 15:52 54.62532 8.69505 10478 ft 298 kts 144°
2026-04-15 15:53 54.60942 8.71835 11203 ft 304 kts 139°
2026-04-15 15:53 54.59413 8.74430 11631 ft 319 kts 136°
2026-04-15 15:53 54.57830 8.77218 12118 ft 331 kts 136°
2026-04-15 15:53 54.56225 8.80056 12802 ft 335 kts 136°
2026-04-15 15:54 54.54596 8.82930 13486 ft 338 kts 136°
2026-04-15 15:54 54.52954 8.85815 14165 ft 341 kts 136°
2026-04-15 15:54 54.51307 8.88697 14805 ft 345 kts 136°
2026-04-15 15:54 54.49477 8.91386 15396 ft 347 kts 150°
2026-04-15 15:55 54.47342 8.93299 16014 ft 349 kts 156°
2026-04-15 15:55 54.45128 8.95023 16568 ft 354 kts 157°
2026-04-15 15:55 54.42889 8.96774 17130 ft 358 kts 156°
2026-04-15 15:55 54.40585 8.98499 17737 ft 360 kts 161°
2026-04-15 15:56 54.38245 8.99926 18287 ft 363 kts 163°
2026-04-15 15:56 54.35836 9.01316 18817 ft 367 kts 163°
2026-04-15 15:56 54.33438 9.02703 19336 ft 370 kts 163°
2026-04-15 15:56 54.30985 9.04139 19863 ft 373 kts 163°
2026-04-15 15:57 54.28560 9.05572 20402 ft 376 kts 163°
2026-04-15 15:57 54.26075 9.07048 20901 ft 379 kts 163°
2026-04-15 15:57 54.23579 9.08536 21144 ft 381 kts 163°
2026-04-15 15:57 54.21073 9.10033 21153 ft 381 kts 163°
2026-04-15 15:58 54.18593 9.11511 21158 ft 380 kts 163°
2026-04-15 15:58 54.16084 9.13005 21156 ft 380 kts 163°
2026-04-15 15:58 54.13592 9.14492 21157 ft 380 kts 163°
2026-04-15 15:58 54.11115 9.15965 21157 ft 380 kts 162°
2026-04-15 15:59 54.08637 9.17439 21157 ft 380 kts 162°
2026-04-15 15:59 54.06147 9.18919 21153 ft 379 kts 163°
2026-04-15 15:59 54.03657 9.20396 21156 ft 379 kts 162°
2026-04-15 15:59 54.01168 9.21872 21154 ft 379 kts 163°
2026-04-15 16:00 53.98673 9.23350 21153 ft 378 kts 163°
2026-04-15 16:00 53.96198 9.24812 21156 ft 379 kts 163°
2026-04-15 16:00 53.93728 9.26270 21157 ft 378 kts 163°
2026-04-15 16:00 53.91249 9.27732 21153 ft 379 kts 163°
2026-04-15 16:01 53.88776 9.29189 21148 ft 379 kts 163°
2026-04-15 16:01 53.86265 9.30667 21154 ft 379 kts 163°
2026-04-15 16:01 53.83805 9.32111 21153 ft 379 kts 163°
2026-04-15 16:01 53.81307 9.33577 21153 ft 379 kts 163°
2026-04-15 16:02 53.78799 9.35045 21150 ft 379 kts 163°
2026-04-15 16:02 53.76758 9.36239 21153 ft 379 kts 163°
2026-04-15 16:02 53.74301 9.37674 21159 ft 378 kts 163°
2026-04-15 16:02 53.71823 9.39121 21155 ft 378 kts 163°
2026-04-15 16:03 53.69316 9.40581 21154 ft 378 kts 163°
2026-04-15 16:03 53.66859 9.42013 21150 ft 378 kts 163°
2026-04-15 16:03 53.64362 9.43467 21151 ft 377 kts 163°
2026-04-15 16:03 53.61910 9.44891 21143 ft 377 kts 163°
2026-04-15 16:04 53.59421 9.46336 21153 ft 377 kts 163°
2026-04-15 16:04 53.56966 9.47758 21160 ft 377 kts 163°
2026-04-15 16:04 53.54485 9.49194 21160 ft 378 kts 163°
2026-04-15 16:04 53.51995 9.50633 21155 ft 378 kts 163°
2026-04-15 16:05 53.49503 9.52073 21160 ft 378 kts 163°
2026-04-15 16:05 53.47051 9.53486 21162 ft 377 kts 163°
2026-04-15 16:05 53.44591 9.54905 21174 ft 378 kts 163°
2026-04-15 16:05 53.42093 9.56342 21173 ft 377 kts 163°
2026-04-15 16:06 53.39610 9.57769 21163 ft 377 kts 163°
2026-04-15 16:06 53.37146 9.59180 21170 ft 377 kts 163°
2026-04-15 16:06 53.34658 9.60608 21174 ft 377 kts 163°
2026-04-15 16:06 53.32198 9.62014 21168 ft 377 kts 163°
2026-04-15 16:07 53.29700 9.63442 21165 ft 377 kts 163°
2026-04-15 16:07 53.27232 9.64851 21166 ft 377 kts 163°
2026-04-15 16:07 53.22288 9.67680 21177 ft 377 kts 163°
2026-04-15 16:08 53.19792 9.69109 21167 ft 377 kts 163°
2026-04-15 16:08 53.17343 9.70503 21167 ft 376 kts 163°
2026-04-15 16:08 53.14854 9.71920 21168 ft 376 kts 163°
2026-04-15 16:08 53.12398 9.73312 21161 ft 376 kts 163°
2026-04-15 16:09 53.09884 9.74737 21171 ft 376 kts 163°
2026-04-15 16:09 53.07443 9.76119 21171 ft 376 kts 163°
2026-04-15 16:09 53.04963 9.77519 21168 ft 376 kts 163°
2026-04-15 16:09 53.02506 9.78906 21165 ft 376 kts 163°
2026-04-15 16:10 53.00027 9.80303 21169 ft 377 kts 163°
2026-04-15 16:10 52.97527 9.81710 21171 ft 377 kts 163°
2026-04-15 16:10 52.95045 9.83105 21169 ft 377 kts 163°
2026-04-15 16:10 52.92568 9.84494 21175 ft 376 kts 163°
2026-04-15 16:11 52.90118 9.85867 21165 ft 376 kts 163°
2026-04-15 16:11 52.87626 9.87264 21166 ft 376 kts 163°
2026-04-15 16:11 52.85163 9.88642 21177 ft 376 kts 163°
2026-04-15 16:11 52.82690 9.90023 21173 ft 376 kts 163°
2026-04-15 16:12 52.80196 9.91416 21184 ft 376 kts 164°
2026-04-15 16:12 52.77745 9.92781 21176 ft 377 kts 163°
2026-04-15 16:12 52.75252 9.94168 21177 ft 376 kts 164°
2026-04-15 16:12 52.72780 9.95542 21179 ft 376 kts 164°
2026-04-15 16:13 52.70299 9.96921 21182 ft 376 kts 164°
2026-04-15 16:13 52.67830 9.98289 21183 ft 375 kts 164°
2026-04-15 16:13 52.65344 9.99668 21183 ft 375 kts 164°
2026-04-15 16:13 52.62884 10.01027 21183 ft 376 kts 164°
2026-04-15 16:14 52.60414 10.02391 21181 ft 375 kts 164°
2026-04-15 16:14 52.57932 10.03761 21179 ft 375 kts 164°
2026-04-15 16:14 52.55475 10.05116 21179 ft 375 kts 163°
2026-04-15 16:14 52.52991 10.06483 21182 ft 374 kts 163°
2026-04-15 16:15 52.50533 10.07835 21179 ft 374 kts 164°
2026-04-15 16:15 52.48063 10.09193 21180 ft 375 kts 164°
2026-04-15 16:15 52.45605 10.10541 21192 ft 375 kts 164°
2026-04-15 16:15 52.43137 10.11895 21185 ft 375 kts 164°
2026-04-15 16:16 52.40660 10.13251 21187 ft 375 kts 164°
2026-04-15 16:16 52.38189 10.14602 21184 ft 374 kts 164°
2026-04-15 16:16 52.35715 10.15952 21185 ft 374 kts 164°
2026-04-15 16:16 52.33258 10.17292 21179 ft 374 kts 164°
2026-04-15 16:17 52.30779 10.18644 21174 ft 374 kts 164°
2026-04-15 16:17 52.28305 10.19991 21178 ft 374 kts 164°
2026-04-15 16:17 52.25842 10.21329 21180 ft 374 kts 164°
2026-04-15 16:17 52.23364 10.22673 21177 ft 374 kts 164°
2026-04-15 16:18 52.20890 10.24014 21178 ft 374 kts 164°
2026-04-15 16:18 52.18441 10.25340 21177 ft 374 kts 164°
2026-04-15 16:18 52.15957 10.26684 21175 ft 374 kts 164°
2026-04-15 16:18 52.13473 10.28027 21174 ft 374 kts 164°
2026-04-15 16:19 52.11006 10.29360 21175 ft 373 kts 164°
2026-04-15 16:19 52.08551 10.30683 21174 ft 373 kts 164°
2026-04-15 16:19 52.06307 10.31892 21174 ft 373 kts 164°
2026-04-15 16:19 52.03870 10.33203 21175 ft 373 kts 164°
2026-04-15 16:20 52.01385 10.34538 21174 ft 373 kts 164°
2026-04-15 16:20 51.98946 10.35845 21173 ft 373 kts 164°
2026-04-15 16:20 51.96493 10.37160 21172 ft 373 kts 164°
2026-04-15 16:20 51.94030 10.38478 21176 ft 373 kts 164°
2026-04-15 16:21 51.91560 10.39799 21176 ft 373 kts 164°
2026-04-15 16:21 51.89101 10.41113 21174 ft 373 kts 164°
2026-04-15 16:21 51.86633 10.42430 21174 ft 373 kts 164°
2026-04-15 16:21 51.84164 10.43746 21176 ft 373 kts 164°
2026-04-15 16:22 51.81704 10.45056 21173 ft 374 kts 164°
2026-04-15 16:22 51.79245 10.46364 21170 ft 373 kts 164°
2026-04-15 16:22 51.76810 10.47657 21167 ft 373 kts 164°
2026-04-15 16:22 51.74324 10.48975 21167 ft 373 kts 164°
2026-04-15 16:23 51.71875 10.50273 21161 ft 373 kts 164°
2026-04-15 16:23 51.69403 10.51581 21158 ft 372 kts 164°
2026-04-15 16:23 51.66953 10.52877 21160 ft 372 kts 164°
2026-04-15 16:23 51.64489 10.54177 21161 ft 372 kts 164°
2026-04-15 16:24 51.62028 10.55475 21164 ft 372 kts 164°
2026-04-15 16:24 51.59571 10.56769 21167 ft 372 kts 164°
2026-04-15 16:24 51.57126 10.58056 21165 ft 372 kts 164°
2026-04-15 16:24 51.54659 10.59352 21165 ft 372 kts 164°
2026-04-15 16:25 51.52191 10.60650 21171 ft 372 kts 164°
2026-04-15 16:25 51.49725 10.61942 21173 ft 373 kts 164°
2026-04-15 16:25 51.47276 10.63225 21171 ft 373 kts 164°
2026-04-15 16:25 51.44808 10.64516 21171 ft 373 kts 164°
2026-04-15 16:26 51.42363 10.65795 21172 ft 373 kts 165°
2026-04-15 16:26 51.39898 10.67082 21171 ft 372 kts 165°
2026-04-15 16:26 51.37429 10.68370 21171 ft 372 kts 165°
2026-04-15 16:26 51.34980 10.69644 21169 ft 372 kts 165°
2026-04-15 16:27 51.32503 10.70934 21168 ft 372 kts 165°
2026-04-15 16:27 51.30054 10.72206 21170 ft 371 kts 165°
2026-04-15 16:27 51.27601 10.73479 21171 ft 371 kts 165°
2026-04-15 16:27 51.25126 10.74764 21173 ft 372 kts 165°
2026-04-15 16:28 51.22667 10.76037 21173 ft 372 kts 165°
2026-04-15 16:28 51.20232 10.77296 21172 ft 372 kts 165°
2026-04-15 16:28 51.17765 10.78571 21171 ft 372 kts 165°
2026-04-15 16:28 51.15287 10.79850 21172 ft 372 kts 165°
2026-04-15 16:29 51.12856 10.81103 21169 ft 372 kts 165°
2026-04-15 16:29 51.10368 10.82385 21169 ft 372 kts 165°
2026-04-15 16:29 51.07901 10.83655 21167 ft 372 kts 165°
2026-04-15 16:29 51.05458 10.84910 21160 ft 371 kts 165°
2026-04-15 16:30 51.03029 10.86157 21162 ft 371 kts 165°
2026-04-15 16:30 51.00586 10.87410 21172 ft 371 kts 165°
2026-04-15 16:30 50.98127 10.88668 21173 ft 371 kts 165°
2026-04-15 16:30 50.95675 10.89921 21181 ft 371 kts 165°
2026-04-15 16:31 50.93203 10.91186 21189 ft 372 kts 165°
2026-04-15 16:31 50.90756 10.92435 21189 ft 372 kts 165°
2026-04-15 16:31 50.88295 10.93689 21190 ft 372 kts 165°
2026-04-15 16:31 50.85865 10.94927 21193 ft 372 kts 165°
2026-04-15 16:32 50.83416 10.96171 21191 ft 371 kts 165°
2026-04-15 16:32 50.80978 10.97409 21184 ft 371 kts 165°
2026-04-15 16:32 50.78506 10.98663 21180 ft 372 kts 165°
2026-04-15 16:32 50.76041 10.99912 21174 ft 371 kts 164°
2026-04-15 16:33 50.73551 11.01079 21165 ft 370 kts 171°
2026-04-15 16:33 50.71018 11.01476 21165 ft 365 kts 184°
2026-04-15 16:33 50.68523 11.01001 21169 ft 362 kts 194°
2026-04-15 16:33 50.66069 11.00147 21168 ft 361 kts 195°
2026-04-15 16:34 50.63626 10.99251 21166 ft 361 kts 195°
2026-04-15 16:34 50.61208 10.98367 21163 ft 361 kts 195°
2026-04-15 16:34 50.58726 10.97472 21163 ft 361 kts 195°
2026-04-15 16:34 50.56299 10.96607 21162 ft 361 kts 195°
2026-04-15 16:35 50.53844 10.95736 21162 ft 361 kts 195°
2026-04-15 16:35 50.51429 10.94883 21160 ft 361 kts 195°
2026-04-15 16:35 50.48972 10.94017 21159 ft 362 kts 195°
2026-04-15 16:35 50.46511 10.93152 21156 ft 361 kts 195°
2026-04-15 16:36 50.44057 10.92291 21158 ft 362 kts 195°
2026-04-15 16:36 50.41590 10.91426 21159 ft 362 kts 195°
2026-04-15 16:36 50.39141 10.90569 21157 ft 362 kts 195°
2026-04-15 16:36 50.36671 10.89706 21157 ft 362 kts 195°
2026-04-15 16:37 50.34230 10.88853 21160 ft 362 kts 195°
2026-04-15 16:37 50.31889 10.88039 21161 ft 362 kts 195°
2026-04-15 16:37 50.29409 10.87175 21160 ft 361 kts 195°
2026-04-15 16:37 50.26958 10.86321 21155 ft 361 kts 195°
2026-04-15 16:38 50.24515 10.85473 21158 ft 361 kts 195°
2026-04-15 16:38 50.22062 10.84622 21159 ft 361 kts 195°
2026-04-15 16:38 50.19595 10.83767 21161 ft 361 kts 195°
2026-04-15 16:38 50.17146 10.82919 21163 ft 362 kts 195°
2026-04-15 16:39 50.14693 10.82071 21163 ft 362 kts 195°
2026-04-15 16:39 50.12234 10.81220 21159 ft 362 kts 195°
2026-04-15 16:39 50.09775 10.80370 21160 ft 362 kts 195°
2026-04-15 16:39 50.07336 10.79528 21160 ft 362 kts 195°
2026-04-15 16:40 50.04887 10.78683 21159 ft 362 kts 195°
2026-04-15 16:40 50.02416 10.77831 21155 ft 361 kts 195°
2026-04-15 16:40 49.99985 10.76993 21147 ft 362 kts 195°
2026-04-15 16:40 49.97524 10.76148 20914 ft 360 kts 194°
2026-04-15 16:41 49.95071 10.75307 20662 ft 358 kts 195°
2026-04-15 16:41 49.92651 10.74476 20411 ft 356 kts 194°
2026-04-15 16:41 49.90252 10.73654 20163 ft 355 kts 195°
2026-04-15 16:41 49.87865 10.72837 19915 ft 354 kts 195°
2026-04-15 16:42 49.85477 10.72022 19665 ft 353 kts 195°
2026-04-15 16:42 49.83053 10.71228 19412 ft 352 kts 192°
2026-04-15 16:42 49.80638 10.70833 19164 ft 353 kts 184°
2026-04-15 16:42 49.78182 10.70931 18916 ft 353 kts 177°
2026-04-15 16:43 49.75753 10.71312 18670 ft 352 kts 176°
2026-04-15 16:43 49.73309 10.71738 18423 ft 350 kts 175°
2026-04-15 16:43 49.70873 10.72162 18182 ft 349 kts 175°
2026-04-15 16:43 49.68480 10.72571 17936 ft 348 kts 175°
2026-04-15 16:44 49.66118 10.73230 17575 ft 349 kts 160°
2026-04-15 16:44 49.64086 10.75279 17178 ft 351 kts 134°
2026-04-15 16:44 49.62872 10.78182 16795 ft 351 kts 111°
2026-04-15 16:44 49.62364 10.81756 16407 ft 348 kts 97°
2026-04-15 16:45 49.62071 10.85440 16006 ft 347 kts 97°
2026-04-15 16:45 49.61769 10.89134 15599 ft 346 kts 97°
2026-04-15 16:45 49.61446 10.92751 15201 ft 344 kts 98°
2026-04-15 16:45 49.61100 10.96419 14798 ft 342 kts 98°
2026-04-15 16:46 49.60753 11.00015 14398 ft 340 kts 98°
2026-04-15 16:46 49.60406 11.03573 13995 ft 338 kts 98°
2026-04-15 16:46 49.60054 11.07162 13596 ft 336 kts 98°
2026-04-15 16:46 49.59705 11.10703 13191 ft 334 kts 98°
2026-04-15 16:47 49.59358 11.14222 12794 ft 332 kts 98°
2026-04-15 16:47 49.59013 11.17705 12398 ft 329 kts 98°
2026-04-15 16:47 49.58666 11.21212 11994 ft 327 kts 98°
2026-04-15 16:47 49.58329 11.24603 11606 ft 324 kts 98°
2026-04-15 16:48 49.57987 11.28015 11216 ft 322 kts 98°
2026-04-15 16:48 49.57643 11.31440 10821 ft 319 kts 98°
2026-04-15 16:48 49.57305 11.34794 10433 ft 317 kts 98°
2026-04-15 16:48 49.56972 11.38094 10230 ft 307 kts 98°
2026-04-15 16:49 49.56652 11.41252 10073 ft 297 kts 98°
2026-04-15 16:49 49.56334 11.44393 9708 ft 295 kts 98°
2026-04-15 16:49 49.56019 11.47498 9352 ft 292 kts 98°
2026-04-15 16:49 49.55708 11.50547 9005 ft 290 kts 98°
2026-04-15 16:50 49.55396 11.53604 8657 ft 288 kts 98°
2026-04-15 16:50 49.55086 11.56634 8317 ft 285 kts 98°
2026-04-15 16:50 49.54773 11.59643 7972 ft 283 kts 101°
2026-04-15 16:50 49.54051 11.62404 7582 ft 279 kts 129°
2026-04-15 16:51 49.52540 11.64159 7244 ft 275 kts 158°
2026-04-15 16:51 49.50679 11.64591 6895 ft 272 kts 185°
2026-04-15 16:51 49.48818 11.64114 6568 ft 269 kts 189°
2026-04-15 16:51 49.47000 11.63482 6203 ft 269 kts 201°
2026-04-15 16:52 49.45530 11.61785 5843 ft 269 kts 232°
2026-04-15 16:52 49.44796 11.59176 5502 ft 269 kts 261°
2026-04-15 16:52 49.44894 11.56323 5172 ft 269 kts 279°
2026-04-15 16:52 49.45230 11.53494 4839 ft 267 kts 279°
2026-04-15 16:53 49.45548 11.50701 4512 ft 266 kts 279°
2026-04-15 16:53 49.45848 11.47920 4196 ft 264 kts 278°
2026-04-15 16:53 49.46139 11.45136 3966 ft 262 kts 278°
2026-04-15 16:53 49.46414 11.42450 3945 ft 242 kts 278°
2026-04-15 16:54 49.46663 11.40002 3945 ft 226 kts 278°
2026-04-15 16:54 49.46915 11.37702 3936 ft 210 kts 279°
2026-04-15 16:54 49.47162 11.35559 4053 ft 193 kts 279°
2026-04-15 16:54 49.47367 11.33645 4043 ft 171 kts 278°
2026-04-15 16:55 49.47539 11.31912 3906 ft 161 kts 278°
2026-04-15 16:55 49.47696 11.30273 3680 ft 150 kts 277°
2026-04-15 16:55 49.47844 11.28716 3471 ft 145 kts 277°
2026-04-15 16:55 49.47988 11.27195 3284 ft 145 kts 277°
2026-04-15 16:56 49.48132 11.25680 3098 ft 144 kts 277°
2026-04-15 16:56 49.48277 11.24165 2916 ft 144 kts 277°
2026-04-15 16:56 49.48423 11.22649 2729 ft 142 kts 277°
2026-04-15 16:56 49.48568 11.21149 2543 ft 141 kts 276°
2026-04-15 16:57 49.48711 11.19672 2357 ft 140 kts 276°
2026-04-15 16:57 49.48854 11.18197 2171 ft 139 kts 276°
2026-04-15 16:57 49.48996 11.16747 1988 ft 138 kts 277°
2026-04-15 16:57 49.49129 11.15301 1832 ft 136 kts 276°
2026-04-15 16:58 49.49262 11.13908 1629 ft 135 kts 277°
2026-04-15 16:58 49.49414 11.12474 1456 ft 136 kts 277°
2026-04-15 16:58 49.49559 11.11041 1278 ft 135 kts 276°
2026-04-15 16:58 49.49692 11.09628 1087 ft 132 kts 276°
2026-04-15 16:59 49.49814 11.08294 1034 ft 112 kts 278°
2026-04-15 16:59 49.49912 11.07384 1022 ft 63 kts 278°
2026-04-15 16:59 49.49950 11.06981 1021 ft 12 kts 277°
2026-04-15 16:59 49.49962 11.06844 1022 ft 21 kts 278°
2026-04-15 17:00 49.49986 11.06602 1022 ft 20 kts 277°
2026-04-15 17:00 49.49934 11.06479 1019 ft 6 kts 184°
2026-04-15 17:00 49.49927 11.06479 1019 ft 2 kts 175°
2026-04-15 17:00 49.49924 11.06479 1019 ft 0 kts 172°
2026-04-15 17:01 49.49906 11.06485 1018 ft 5 kts 166°
2026-04-15 17:01 49.49853 11.06513 1017 ft 5 kts 160°
2026-04-15 17:01 49.49851 11.06515 1017 ft 0 kts 159°
2026-04-15 17:02 49.49834 11.06526 1016 ft 4 kts 154°
2026-04-15 17:02 49.49805 11.06565 1017 ft 5 kts 122°
2026-04-15 17:02 49.49794 11.06626 1017 ft 6 kts 101°
2026-04-15 17:02 49.49786 11.06699 1018 ft 7 kts 98°
2026-04-15 17:03 49.49777 11.06792 1018 ft 10 kts 98°
2026-04-15 17:03 49.49765 11.06914 1018 ft 12 kts 99°
2026-04-15 17:03 49.49759 11.06973 1018 ft 2 kts 99°
2026-04-15 17:03 49.49755 11.07005 1018 ft 3 kts 98°
2026-04-15 17:04 49.49752 11.07040 1018 ft 2 kts 97°
2026-04-15 17:04 49.49750 11.07068 1019 ft 2 kts 97°
2026-04-15 17:04 49.49748 11.07094 1019 ft 3 kts 97°
2026-04-15 17:04 49.49744 11.07140 1019 ft 4 kts 97°
2026-04-15 17:05 49.49735 11.07193 1019 ft 6 kts 117°
2026-04-15 17:05 49.49691 11.07229 1019 ft 8 kts 179°
2026-04-15 17:05 49.49638 11.07265 1019 ft 9 kts 111°
2026-04-15 17:05 49.49626 11.07364 1019 ft 9 kts 98°
2026-04-15 17:06 49.49616 11.07467 1019 ft 8 kts 98°
2026-04-15 17:06 49.49596 11.07519 1019 ft 4 kts 157°
2026-04-15 17:06 49.49558 11.07520 1020 ft 2 kts 187°
2026-04-15 17:06 49.49545 11.07517 1019 ft 0 kts 187°
2026-04-15 17:07 49.49544 11.07517 1019 ft 0 kts 187°